Regional Weather Roundup
Issued by NWS

Home | Current Version | Previous Version | Graphics & Text | Print | Product List | Glossary On
Versions: 1 2 3 4 5 6 7 8 9 10 11 12 13 14 15 16 17 18 19 20 21 22 23 24 25 26 27 28 29 30 31 32 33 34 35 36 37 38 39 40 41 42 43 44 45 46 47 48 49 50
000
ASUS44 KMEG 232210
RWRTN
TENNESSEE HOURLY STATE WEATHER ROUNDUP
NATIONAL WEATHER SERVICE MEMPHIS TN
500 PM CDT THU MAR 23 2017

TNZ002-004-019-021-049-052-054-088>092-232300-
WEST TENNESSEE

CITY           SKY/WX    TMP DP  RH WIND       PRES   REMARKS
MEMPHIS INTL   MOSUNNY   79  52  38 S12       30.12F
NWS MEMPHIS      N/A     80 N/A N/A MISG        N/A
JACKSON        SUNNY     77  47  34 S12       30.15F
DYERSBURG      SUNNY     74  49  41 S7        30.15F
SOMERVILLE     SUNNY     79  50  36 S10       30.13F
BOLIVAR        SUNNY     77  48  36 SE12      30.14F
PARIS          SUNNY     68  39  34 VRB6      30.18F
HUNTINGDON     SUNNY     75  45  33 SE12      30.16S
SAVANNAH       SUNNY     77  48  36 S12       30.16F
$$

TNZ008-025-027-028-033-062-065-066-232300-
NORTH MIDDLE TENNESSEE

CITY           SKY/WX    TMP DP  RH WIND       PRES   REMARKS
NASHVILLE      PTSUNNY   72  42  34 S15       30.23F
PORTLAND       SUNNY     63  41  45 SE10      30.24F
CLARKSVILLE    MOSUNNY   59  43  55 E8        30.22F
SMYRNA         PTSUNNY   72  45  37 S13       30.24F
COOKEVILLE     SUNNY     59  46  63 E6        30.28F
GALLATIN       PTSUNNY   68  43  40 SE9       30.26F
CROSSVILLE     CLOUDY    57  37  47 VRB7      30.31F
$$

TNZ061-075-076-078-094-096-097-232300-
SOUTH MIDDLE TENNESSEE

CITY           SKY/WX    TMP DP  RH WIND       PRES   REMARKS
FAYETTEVILLE   SUNNY     70  45  40 SE9       30.25S
TULLAHOMA      SUNNY     68  37  32 S13       30.27F
WINCHESTER     SUNNY     68  45  42 SE13      30.27F
MCMINNVILLE    SUNNY     66  41  39 SE8       30.28S
COLUMBIA       SUNNY     72  45  37 SE12      30.20F
SHELBYVILLE    SUNNY     72  46  40 S14       30.26S
$$

TNZ017-018-042-046-047-232300-
NORTHEAST TENNESSEE

CITY           SKY/WX    TMP DP  RH WIND       PRES   REMARKS
TRI CITIES     MOSUNNY   64  32  30 S6        30.33F
ELIZABETHTON   SUNNY     64  30  27 VRB5      30.33S
$$

TNZ012-013-036-069-073-074-232300-
CENTRAL EAST TENNESSEE

CITY           SKY/WX    TMP DP  RH WIND       PRES   REMARKS
KNOXVILLE      CLOUDY    66  37  34 SW6       30.30F
OAK RIDGE      CLOUDY    67  36  31 S7        30.31F
DOWNTOWN KNOXV SUNNY     68  39  34 W7        30.31F
GATLINBURG     SUNNY     64  34  32 NW3       30.31F
MORRISTOWN     SUNNY     64  32  29 N5        30.31F
JACKSBORO      SUNNY     64  37  36 S8G14     30.33F
$$

TNZ083-085-099-232300-
SOUTHEAST TENNESSEE

CITY           SKY/WX    TMP DP  RH WIND       PRES   REMARKS
CHATTANOOGA    CLOUDY    65  36  34 SE9G22    30.31F
$$

SKY/WX REPORTED AS FAIR MEANS FEW OR NO CLOUDS BELOW
12 THOUSAND FEET.





USA.gov is the U.S. government's official web portal to all federal, state and local government web resources and services.